Weather History for Middletown, PA

Change the Weather History Date:

Tuesday, January 21, 2014

  Actual Average Record
Temperature  
Mean Temperature 21 °F 30 °F  
Max Temperature 35 °F 37 °F 64 °F (1959)
Min Temperature 7 °F 22 °F -22 °F (1994)
Degree Days  
Heating Degree Days 44 35  
Month to date heating degree days 804 732  
Since 1 July heating degree days 2805 2733  
Cooling Degree Days 0 0  
Month to date cooling degree days 0 0  
Year to date cooling degree days 0 0  
Moisture  
Dew Point 13 °F    
Average Humidity 68    
Maximum Humidity 84    
Minimum Humidity 52    
Precipitation  
Precipitation 0.34 in 0.09 in 1.56 in (1902)
Month to date precipitation 2.44 1.98  
Year to date precipitation 2.44 1.98  
Snow  
Snow 4.60 in - - ()
Month to date snowfall 11.7  
Since 1 July snowfall 20.9  
Snow Depth T in    
Sea Level Pressure  
Sea Level Pressure 29.91 in    
Wind  
Wind Speed 8 mph (NNE)    
Max Wind Speed 18 mph    
Max Gust Speed 24 mph    
Visibility 3 miles    
Events Fog , Snow    
T = Trace of Precipitation, MM = Missing Value Source: NWS Daily Summary

Daily Weather History Graph

Daily Weather History Graph

Search for Another Location

Airport:

Trip Planner

Search our weather history database for the weather conditions in past years. The results will help you decide how hot, cold, wet, or windy it might be!

Date:

Astronomy

Jan. 21, 2014 Rise Set
Actual Time 7:24 AM EST 5:12 PM EST
Civil Twilight 6:55 AM EST 5:42 PM EST
Nautical Twilight 6:21 AM EST 6:15 PM EST
Astronomical Twilight 5:49 AM EST 6:47 PM EST
Moon 10:44 PM EST (1/21) 9:52 AM EST (1/21)
Length of Visible Light 10h 47m
Length of Day
9h 48m
Waning Gibbous, 75% of the Moon is Illuminated
Jan 21
Waning Gibbous
Jan 24
Last Quarter
Jan 30
New
Feb 6
First Quarter
Feb 14
Full

Hourly Weather History & Observations

Time (EST) Temp. Windchill Dew Point Humidity Pressure Visibility Wind Dir Wind Speed Gust Speed Precip Events Conditions
12:56 AM 34.0 °F - 19.0 °F 54% 29.89 in 10.0 mi Calm Calm - N/A   Overcast
1:56 AM 33.1 °F 27.7 °F 19.0 °F 56% 29.90 in 10.0 mi NNW 5.8 mph - N/A   Overcast
2:56 AM 32.0 °F 27.5 °F 18.0 °F 56% 29.91 in 10.0 mi NE 4.6 mph - N/A   Overcast
3:56 AM 28.9 °F 20.4 °F 18.0 °F 64% 29.89 in 10.0 mi NE 9.2 mph - N/A   Overcast
4:56 AM 28.0 °F 18.6 °F 16.0 °F 61% 29.91 in 10.0 mi ENE 10.4 mph - N/A   Overcast
5:56 AM 26.1 °F 17.6 °F 14.0 °F 60% 29.93 in 7.0 mi NE 8.1 mph - 0.00 in Snow Light Snow
6:12 AM 24.8 °F 16.1 °F 15.8 °F 69% 29.91 in 2.0 mi ENE 8.1 mph - 0.00 in Snow Light Snow
6:28 AM 24.8 °F 16.1 °F 17.6 °F 74% 29.91 in 1.5 mi East 8.1 mph - 0.00 in Snow Light Snow
6:56 AM 23.0 °F 13.1 °F 17.1 °F 78% 29.91 in 1.5 mi ENE 9.2 mph - 0.00 in Snow Light Snow
7:56 AM 21.9 °F 14.5 °F 16.0 °F 78% 29.92 in 0.8 mi ENE 5.8 mph - 0.01 in Snow Light Snow
8:15 AM 21.2 °F 13.6 °F 17.6 °F 86% 29.92 in 0.5 mi East 5.8 mph - 0.01 in Snow Snow
8:28 AM 21.2 °F 11.7 °F 17.6 °F 86% 29.92 in 0.5 mi ENE 8.1 mph - 0.02 in Fog , Snow Light Snow
8:56 AM 21.0 °F 12.4 °F 17.1 °F 85% 29.96 in 0.5 mi ENE 6.9 mph - 0.04 in Fog , Snow Light Snow
9:29 AM 21.2 °F 12.6 °F 17.6 °F 86% 29.96 in 0.2 mi ENE 6.9 mph - 0.03 in Fog , Snow Snow
9:42 AM 21.2 °F 13.6 °F 17.6 °F 86% 29.96 in 0.2 mi ENE 5.8 mph - 0.04 in Fog , Snow Snow
9:56 AM 21.0 °F 14.6 °F 17.1 °F 85% 29.97 in 0.2 mi ENE 4.6 mph - 0.06 in Fog , Snow Snow
10:06 AM 21.2 °F 11.7 °F 15.8 °F 80% 29.96 in 0.2 mi ENE 8.1 mph - 0.00 in Snow Heavy Snow
10:56 AM 19.9 °F 11.1 °F 15.1 °F 81% 29.97 in 0.5 mi ENE 6.9 mph - 0.04 in Snow Snow
11:28 AM 19.4 °F 10.4 °F 15.8 °F 86% 29.94 in 0.2 mi Variable 6.9 mph - 0.03 in Snow Heavy Snow
11:47 AM 19.4 °F 10.4 °F 15.8 °F 86% 29.93 in 0.5 mi NNE 6.9 mph - 0.05 in Snow Snow
11:56 AM 19.9 °F 9.3 °F 15.1 °F 81% 29.94 in 0.5 mi North 9.2 mph - 0.05 in Snow Snow
12:19 PM 19.4 °F 9.5 °F 14.0 °F 80% 29.91 in 0.5 mi NNE 8.1 mph - 0.01 in Snow Light Snow
12:34 PM 19.4 °F 9.5 °F 14.0 °F 80% 29.90 in 0.8 mi NNE 8.1 mph 17.3 mph 0.02 in Snow Light Snow
12:56 PM 19.9 °F 9.3 °F 14.0 °F 78% 29.89 in 0.8 mi NE 9.2 mph - 0.02 in Snow Light Snow
1:19 PM 19.4 °F 7.9 °F 14.0 °F 80% 29.86 in 0.5 mi North 10.4 mph 17.3 mph 0.01 in Snow Snow
1:26 PM 19.4 °F 7.9 °F 14.0 °F 80% 29.86 in 0.8 mi North 10.4 mph - 0.01 in Snow Light Snow
1:35 PM 19.4 °F 7.2 °F 14.0 °F 80% 29.86 in 1.0 mi North 11.5 mph - 0.01 in Snow Light Snow
1:56 PM 19.0 °F 6.8 °F 12.9 °F 77% 29.87 in 1.0 mi North 11.5 mph - 0.02 in Snow Light Snow
2:14 PM 19.4 °F 7.9 °F 14.0 °F 80% 29.85 in 0.8 mi North 10.4 mph - 0.00 in Snow Light Snow
2:56 PM 18.0 °F 7.7 °F 12.9 °F 81% 29.85 in 0.8 mi NNE 8.1 mph - 0.01 in Snow Light Snow
3:42 PM 17.6 °F 7.3 °F 12.2 °F 79% 29.85 in 1.0 mi North 8.1 mph - 0.01 in Snow Light Snow
3:56 PM 17.1 °F 7.6 °F 12.0 °F 81% 29.87 in 1.0 mi North 6.9 mph - 0.01 in Snow Light Snow
4:20 PM 17.6 °F 9.3 °F 12.2 °F 79% 29.86 in 0.5 mi NNE 5.8 mph - 0.01 in Snow Snow
4:56 PM 17.1 °F 8.7 °F 12.0 °F 81% 29.89 in 0.5 mi North 5.8 mph - 0.02 in Snow Snow
5:20 PM 17.6 °F 7.3 °F 12.2 °F 79% 29.88 in 1.0 mi NNW 8.1 mph - 0.01 in Snow Light Snow
5:23 PM 17.6 °F 7.3 °F 12.2 °F 79% 29.88 in 0.5 mi North 8.1 mph - 0.01 in Snow Light Snow
5:45 PM 15.8 °F 5.1 °F 10.4 °F 79% 29.89 in 1.0 mi North 8.1 mph - 0.02 in Snow Light Snow
5:56 PM 16.0 °F 6.3 °F 10.9 °F 81% 29.92 in 1.0 mi NNW 6.9 mph - 0.02 in Snow Light Snow
6:05 PM 15.8 °F 5.1 °F 10.4 °F 79% 29.90 in 0.8 mi NNW 8.1 mph - 0.00 in Snow Light Snow
6:56 PM 15.1 °F 4.2 °F 10.0 °F 80% 29.94 in 0.8 mi North 8.1 mph - 0.02 in Snow Light Snow
7:13 PM 15.8 °F 8.6 °F 10.4 °F 79% 29.92 in 1.2 mi Variable 4.6 mph - 0.02 in Snow Light Snow
7:23 PM 15.8 °F 8.6 °F 10.4 °F 79% 29.92 in 3.0 mi North 4.6 mph - 0.02 in Snow Light Snow
7:56 PM 15.1 °F 3.3 °F 3.0 °F 59% 29.95 in 9.0 mi North 9.2 mph - 0.02 in   Overcast
8:56 PM 12.9 °F -2.2 °F 1.0 °F 59% 29.96 in 10.0 mi NNW 13.8 mph 21.9 mph N/A   Overcast
9:56 PM 10.4 °F -6.0 °F -2.2 °F 57% 29.96 in 10.0 mi NNW 15.0 mph 20.7 mph N/A   Overcast
10:56 PM 9.0 °F -6.6 °F -5.1 °F 53% 29.96 in 10.0 mi NNW 12.7 mph - N/A   Overcast
11:56 PM 7.0 °F -9.8 °F -7.1 °F 53% 29.95 in 10.0 mi NNW 13.8 mph - N/A   Partly Cloudy